Time,TemperatureF,DewpointF,PressureIn,WindDirection,WindDirectionDegrees,WindSpeedMPH,WindSpeedGustMPH,Humidity,HourlyPrecipIn,Conditions,Clouds,dailyrainin,SoftwareType,DateUTC
2013-12-26 00:01:00,24.0,21.0,30.45,NW,308,1.0,1.0,88,0.00,,---,0.00,VWS V14.01,2013-12-26 05:01:00,
2013-12-26 00:02:00,24.0,21.0,30.45,NW,308,0.0,1.0,88,0.00,,---,0.00,VWS V14.01,2013-12-26 05:02:00,
2013-12-26 00:07:00,24.1,21.1,30.45,NW,308,1.0,2.0,88,0.00,,---,0.00,VWS V14.01,2013-12-26 05:07:00,
2013-12-26 00:12:00,23.9,20.9,30.45,NW,307,3.0,3.0,88,0.00,,---,0.00,VWS V14.01,2013-12-26 05:12:00,
2013-12-26 00:17:00,23.8,20.8,30.45,WNW,299,3.0,3.0,88,0.00,,---,0.00,VWS V14.01,2013-12-26 05:17:00,
2013-12-26 00:22:00,23.5,20.5,30.45,WNW,299,1.0,3.0,88,0.00,,---,0.00,VWS V14.01,2013-12-26 05:22:00,
2013-12-26 00:27:00,23.3,20.3,30.45,WNW,298,2.0,4.0,88,0.00,,---,0.00,VWS V14.01,2013-12-26 05:27:00,
2013-12-26 00:32:00,23.3,20.3,30.44,WNW,298,0.0,2.0,88,0.00,,---,0.00,VWS V14.01,2013-12-26 05:32:00,
2013-12-26 00:37:00,23.3,20.3,30.44,WNW,298,2.0,2.0,88,0.00,,---,0.00,VWS V14.01,2013-12-26 05:37:00,
2013-12-26 00:42:00,23.2,20.2,30.44,WNW,298,0.0,2.0,88,0.00,,---,0.00,VWS V14.01,2013-12-26 05:42:00,
2013-12-26 00:47:00,23.2,20.5,30.44,WNW,298,2.0,3.0,89,0.00,,---,0.00,VWS V14.01,2013-12-26 05:47:00,
2013-12-26 00:52:00,23.3,20.5,30.44,WNW,298,1.0,3.0,89,0.00,,---,0.00,VWS V14.01,2013-12-26 05:52:00,
2013-12-26 00:57:00,23.3,20.5,30.44,WNW,298,0.0,3.0,89,0.00,,---,0.00,VWS V14.01,2013-12-26 05:57:00,
2013-12-26 01:02:00,23.2,20.5,30.43,WNW,298,0.0,0.0,89,0.00,,---,0.00,VWS V14.01,2013-12-26 06:02:00,
2013-12-26 01:07:00,23.2,20.5,30.43,WNW,298,0.0,0.0,89,0.00,,---,0.00,VWS V14.01,2013-12-26 06:07:00,
2013-12-26 01:12:00,23.2,20.5,30.43,WNW,298,0.0,2.0,89,0.00,,---,0.00,VWS V14.01,2013-12-26 06:12:00,
2013-12-26 01:17:00,23.2,20.5,30.42,WNW,298,0.0,0.0,89,0.00,,---,0.00,VWS V14.01,2013-12-26 06:17:00,
2013-12-26 01:22:00,23.2,20.5,30.42,WNW,298,0.0,0.0,89,0.00,,---,0.00,VWS V14.01,2013-12-26 06:22:00,
2013-12-26 01:27:00,23.3,20.5,30.42,WNW,298,2.0,3.0,89,0.00,,---,0.00,VWS V14.01,2013-12-26 06:27:00,
2013-12-26 01:32:00,23.3,20.5,30.43,WNW,298,2.0,3.0,89,0.00,,---,0.00,VWS V14.01,2013-12-26 06:32:00,
2013-12-26 01:37:00,23.3,20.5,30.43,WNW,298,2.0,3.0,89,0.00,,---,0.00,VWS V14.01,2013-12-26 06:37:00,
2013-12-26 01:42:00,23.2,20.5,30.43,WNW,298,1.0,3.0,89,0.00,,---,0.00,VWS V14.01,2013-12-26 06:42:00,
2013-12-26 01:47:00,23.1,20.4,30.43,WNW,298,0.0,1.0,89,0.00,,---,0.00,VWS V14.01,2013-12-26 06:47:00,
2013-12-26 01:53:00,23.0,20.2,30.43,WNW,298,0.0,1.0,89,0.00,,---,0.00,VWS V14.01,2013-12-26 06:53:00,
2013-12-26 01:58:00,23.0,20.2,30.43,WNW,298,2.0,2.0,89,0.00,,---,0.00,VWS V14.01,2013-12-26 06:58:00,
2013-12-26 02:03:00,23.1,20.6,30.43,WNW,298,2.0,2.0,90,0.00,,---,0.00,VWS V14.01,2013-12-26 07:03:00,
2013-12-26 02:08:00,23.3,20.8,30.43,WNW,298,1.0,2.0,90,0.00,,---,0.00,VWS V14.01,2013-12-26 07:08:00,
2013-12-26 02:13:00,23.4,20.9,30.43,WNW,298,1.0,3.0,90,0.00,,---,0.00,VWS V14.01,2013-12-26 07:13:00,
2013-12-26 02:18:00,23.6,21.1,30.43,WNW,298,1.0,2.0,90,0.00,,---,0.00,VWS V14.01,2013-12-26 07:18:00,
2013-12-26 02:23:00,23.7,21.2,30.43,WNW,298,0.0,2.0,90,0.00,,---,0.00,VWS V14.01,2013-12-26 07:23:00,
2013-12-26 02:28:00,23.9,21.4,30.43,WNW,298,2.0,3.0,90,0.00,,---,0.00,VWS V14.01,2013-12-26 07:28:00,
2013-12-26 02:33:00,24.0,21.5,30.43,WNW,298,2.0,2.0,90,0.00,,---,0.00,VWS V14.01,2013-12-26 07:33:00,
2013-12-26 02:38:00,24.2,21.4,30.43,WNW,298,2.0,3.0,89,0.00,,---,0.00,VWS V14.01,2013-12-26 07:38:00,
2013-12-26 02:43:00,24.3,21.5,30.43,WNW,298,1.0,3.0,89,0.00,,---,0.00,VWS V14.01,2013-12-26 07:43:00,
2013-12-26 02:48:00,24.4,21.6,30.43,WNW,298,0.0,0.0,89,0.00,,---,0.00,VWS V14.01,2013-12-26 07:48:00,
2013-12-26 02:53:00,24.5,21.7,30.43,WNW,298,0.0,0.0,89,0.00,,---,0.00,VWS V14.01,2013-12-26 07:53:00,
2013-12-26 02:58:00,24.5,21.7,30.43,WNW,298,0.0,0.0,89,0.00,,---,0.00,VWS V14.01,2013-12-26 07:58:00,
2013-12-26 03:03:00,24.5,21.7,30.43,WNW,298,2.0,3.0,89,0.00,,---,0.00,VWS V14.01,2013-12-26 08:03:00,
2013-12-26 03:08:00,24.7,21.9,30.43,WNW,298,0.0,3.0,89,0.00,,---,0.00,VWS V14.01,2013-12-26 08:08:00,
2013-12-26 03:13:00,24.8,22.0,30.43,WNW,298,0.0,3.0,89,0.00,,---,0.00,VWS V14.01,2013-12-26 08:13:00,
2013-12-26 03:18:00,24.8,22.0,30.43,WNW,298,0.0,0.0,89,0.00,,---,0.00,VWS V14.01,2013-12-26 08:18:00,
2013-12-26 03:23:00,24.9,22.1,30.43,WNW,298,0.0,0.0,89,0.00,,---,0.00,VWS V14.01,2013-12-26 08:23:00,
2013-12-26 03:28:00,25.1,22.3,30.43,WNW,298,0.0,0.0,89,0.00,,---,0.00,VWS V14.01,2013-12-26 08:28:00,
2013-12-26 03:33:00,25.2,22.4,30.41,WNW,298,0.0,0.0,89,0.00,,---,0.00,VWS V14.01,2013-12-26 08:33:00,
2013-12-26 03:38:00,25.3,22.5,30.41,WNW,298,0.0,0.0,89,0.00,,---,0.00,VWS V14.01,2013-12-26 08:38:00,
2013-12-26 03:43:00,25.4,22.6,30.41,WNW,298,0.0,0.0,89,0.00,,---,0.00,VWS V14.01,2013-12-26 08:43:00,
2013-12-26 03:49:00,25.4,22.6,30.41,WNW,298,0.0,0.0,89,0.00,,---,0.00,VWS V14.01,2013-12-26 08:49:00,
2013-12-26 03:54:00,25.4,22.6,30.41,WNW,298,0.0,0.0,89,0.00,,---,0.00,VWS V14.01,2013-12-26 08:54:00,
2013-12-26 03:59:00,25.4,22.6,30.41,WNW,298,0.0,0.0,89,0.00,,---,0.00,VWS V14.01,2013-12-26 08:59:00,
2013-12-26 04:04:00,25.4,22.6,30.41,WNW,298,0.0,0.0,89,0.00,,---,0.00,VWS V14.01,2013-12-26 09:04:00,
2013-12-26 04:09:00,25.6,22.8,30.41,WNW,298,0.0,0.0,89,0.00,,---,0.00,VWS V14.01,2013-12-26 09:09:00,
2013-12-26 04:14:00,25.6,23.1,30.41,WNW,298,0.0,0.0,90,0.00,,---,0.00,VWS V14.01,2013-12-26 09:14:00,
2013-12-26 04:19:00,25.7,23.2,30.41,WNW,298,0.0,0.0,90,0.00,,---,0.00,VWS V14.01,2013-12-26 09:19:00,
2013-12-26 04:24:00,25.7,23.2,30.41,WNW,298,0.0,0.0,90,0.00,,---,0.00,VWS V14.01,2013-12-26 09:24:00,
2013-12-26 04:29:00,25.8,23.3,30.41,WNW,298,0.0,0.0,90,0.00,,---,0.00,VWS V14.01,2013-12-26 09:29:00,
2013-12-26 04:34:00,26.0,23.5,30.40,WNW,298,0.0,0.0,90,0.00,,---,0.00,VWS V14.01,2013-12-26 09:34:00,
2013-12-26 04:39:00,26.1,23.3,30.40,WNW,298,0.0,0.0,89,0.00,,---,0.00,VWS V14.01,2013-12-26 09:39:00,
2013-12-26 04:44:00,26.3,23.5,30.40,WNW,298,0.0,0.0,89,0.00,,---,0.00,VWS V14.01,2013-12-26 09:44:00,
2013-12-26 04:49:00,26.5,23.7,30.40,WNW,298,0.0,0.0,89,0.00,,---,0.00,VWS V14.01,2013-12-26 09:49:00,
2013-12-26 04:54:00,26.6,23.8,30.40,WNW,298,0.0,0.0,89,0.00,,---,0.00,VWS V14.01,2013-12-26 09:54:00,
2013-12-26 04:59:00,26.6,23.8,30.40,WNW,298,0.0,0.0,89,0.00,,---,0.00,VWS V14.01,2013-12-26 09:59:00,
2013-12-26 05:04:00,26.7,23.9,30.39,WNW,298,0.0,0.0,89,0.00,,---,0.00,VWS V14.01,2013-12-26 10:04:00,
2013-12-26 05:09:00,26.7,23.9,30.39,WNW,298,2.0,2.0,89,0.00,,---,0.00,VWS V14.01,2013-12-26 10:09:00,
2013-12-26 05:14:00,26.7,24.2,30.39,WNW,298,1.0,3.0,90,0.00,,---,0.00,VWS V14.01,2013-12-26 10:14:00,
2013-12-26 05:19:00,26.9,24.4,30.38,WNW,298,3.0,3.0,90,0.00,,---,0.00,VWS V14.01,2013-12-26 10:19:00,
2013-12-26 05:24:00,27.1,24.6,30.38,WNW,298,1.0,3.0,90,0.00,,---,0.00,VWS V14.01,2013-12-26 10:24:00,
2013-12-26 05:29:00,27.3,24.8,30.38,WNW,298,3.0,3.0,90,0.00,,---,0.00,VWS V14.01,2013-12-26 10:29:00,
2013-12-26 05:34:00,27.5,25.0,30.38,WNW,298,2.0,3.0,90,0.00,,---,0.00,VWS V14.01,2013-12-26 10:34:00,
2013-12-26 05:39:00,27.9,25.4,30.38,WNW,299,1.0,3.0,90,0.00,,---,0.00,VWS V14.01,2013-12-26 10:39:00,
2013-12-26 05:44:00,28.1,25.5,30.38,WNW,299,1.0,3.0,90,0.00,,---,0.00,VWS V14.01,2013-12-26 10:44:00,
2013-12-26 05:49:00,28.6,26.0,30.37,WNW,299,0.0,2.0,90,0.00,,---,0.00,VWS V14.01,2013-12-26 10:49:00,
2013-12-26 05:54:00,29.0,26.7,30.37,WNW,299,1.0,2.0,91,0.00,,---,0.00,VWS V14.01,2013-12-26 10:54:00,
2013-12-26 06:00:00,29.4,27.1,30.37,NNW,340,1.0,3.0,91,0.00,,---,0.00,VWS V14.01,2013-12-26 11:00:00,
2013-12-26 06:05:00,29.7,27.4,30.37,NNW,340,2.0,2.0,91,0.00,,---,0.00,VWS V14.01,2013-12-26 11:05:00,
2013-12-26 06:10:00,30.0,27.4,30.37,NNW,340,0.0,3.0,90,0.00,,---,0.00,VWS V14.01,2013-12-26 11:10:00,
2013-12-26 06:15:00,30.6,28.0,30.36,ENE,64,3.0,5.0,90,0.00,,---,0.00,VWS V14.01,2013-12-26 11:15:00,
2013-12-26 06:20:00,31.6,29.0,30.36,ESE,113,1.0,7.0,90,0.00,,---,0.00,VWS V14.01,2013-12-26 11:20:00,
2013-12-26 06:25:00,32.1,29.5,30.36,South,179,5.0,9.0,90,0.00,,---,0.00,VWS V14.01,2013-12-26 11:25:00,
2013-12-26 06:30:00,33.5,30.3,30.36,SSW,192,10.0,10.0,88,0.00,,---,0.00,VWS V14.01,2013-12-26 11:30:00,
2013-12-26 06:35:00,34.3,30.3,30.36,South,190,6.0,13.0,85,0.00,,---,0.00,VWS V14.01,2013-12-26 11:35:00,
2013-12-26 06:40:00,34.7,30.4,30.36,SSW,192,9.0,13.0,84,0.00,,---,0.00,VWS V14.01,2013-12-26 11:40:00,
2013-12-26 06:45:00,34.8,29.9,30.35,South,191,11.0,13.0,82,0.00,,---,0.00,VWS V14.01,2013-12-26 11:45:00,
2013-12-26 06:50:00,35.0,29.8,30.35,South,181,8.0,13.0,81,0.00,,---,0.00,VWS V14.01,2013-12-26 11:50:00,
2013-12-26 06:55:00,35.2,29.7,30.35,SSW,202,9.0,17.0,80,0.00,,---,0.00,VWS V14.01,2013-12-26 11:55:00,
2013-12-26 07:00:00,35.4,29.9,30.35,South,185,12.0,17.0,80,0.00,,---,0.00,VWS V14.01,2013-12-26 12:00:00,
2013-12-26 07:05:00,35.5,30.0,30.35,South,178,12.0,15.0,80,0.00,,---,0.00,VWS V14.01,2013-12-26 12:05:00,
2013-12-26 07:10:00,35.5,29.6,30.35,SSW,194,8.0,15.0,79,0.00,,---,0.00,VWS V14.01,2013-12-26 12:10:00,
2013-12-26 07:15:00,35.6,30.0,30.34,SSW,192,10.0,15.0,80,0.00,,---,0.00,VWS V14.01,2013-12-26 12:15:00,
2013-12-26 07:20:00,35.7,30.1,30.34,South,191,11.0,17.0,80,0.00,,---,0.00,VWS V14.01,2013-12-26 12:20:00,
2013-12-26 07:25:00,35.9,30.0,30.34,South,191,12.0,18.0,79,0.00,,---,0.00,VWS V14.01,2013-12-26 12:25:00,
2013-12-26 07:30:00,36.0,30.1,30.34,SSW,206,12.0,18.0,79,0.00,,---,0.00,VWS V14.01,2013-12-26 12:30:00,
2013-12-26 07:35:00,36.0,29.8,30.34,SSW,194,9.0,20.0,78,0.00,,---,0.00,VWS V14.01,2013-12-26 12:35:00,
2013-12-26 07:40:00,36.1,29.9,30.34,South,179,10.0,20.0,78,0.00,,---,0.00,VWS V14.01,2013-12-26 12:40:00,
2013-12-26 07:45:00,36.1,30.2,30.34,SSW,209,7.0,20.0,79,0.00,,---,0.00,VWS V14.01,2013-12-26 12:45:00,
2013-12-26 07:50:00,36.1,30.2,30.34,SSW,197,11.0,11.0,79,0.00,,---,0.00,VWS V14.01,2013-12-26 12:50:00,
2013-12-26 07:55:00,36.1,30.5,30.34,SW,231,4.0,11.0,80,0.00,,---,0.00,VWS V14.01,2013-12-26 12:55:00,
2013-12-26 07:59:00,36.2,30.3,30.34,SSW,200,7.0,11.0,79,0.00,,---,0.00,VWS V14.01,2013-12-26 12:59:00,
2013-12-26 08:04:00,36.5,30.9,30.33,SSW,202,6.0,12.0,80,0.00,,---,0.00,VWS V14.01,2013-12-26 13:04:00,
2013-12-26 08:09:00,36.7,30.5,30.33,South,179,13.0,19.0,78,0.00,,---,0.00,VWS V14.01,2013-12-26 13:09:00,
2013-12-26 08:14:00,37.1,30.9,30.33,SSW,197,12.0,19.0,78,0.00,,---,0.00,VWS V14.01,2013-12-26 13:14:00,
2013-12-26 08:19:00,37.3,31.1,30.32,South,182,15.0,19.0,78,0.00,,---,0.00,VWS V14.01,2013-12-26 13:19:00,
2013-12-26 08:24:00,37.4,31.2,30.32,South,187,15.0,19.0,78,0.00,,---,0.00,VWS V14.01,2013-12-26 13:24:00,
2013-12-26 08:29:00,37.5,31.0,30.32,South,182,14.0,19.0,77,0.00,,---,0.00,VWS V14.01,2013-12-26 13:29:00,
2013-12-26 08:34:00,37.7,30.5,30.31,South,171,15.0,21.0,75,0.00,,---,0.00,VWS V14.01,2013-12-26 13:34:00,
2013-12-26 08:39:00,37.8,30.6,30.31,South,177,15.0,23.0,75,0.00,,---,0.00,VWS V14.01,2013-12-26 13:39:00,
2013-12-26 08:44:00,37.9,31.4,30.30,SSE,149,13.0,23.0,77,0.00,,---,0.00,VWS V14.01,2013-12-26 13:44:00,
2013-12-26 08:50:00,38.0,31.1,30.30,South,171,14.0,21.0,76,0.00,,---,0.00,VWS V14.01,2013-12-26 13:50:00,
2013-12-26 08:55:00,38.0,31.4,30.30,SSE,161,14.0,21.0,77,0.00,,---,0.00,VWS V14.01,2013-12-26 13:55:00,
2013-12-26 09:00:00,38.1,31.5,30.30,South,174,14.0,21.0,77,0.00,,---,0.00,VWS V14.01,2013-12-26 14:00:00,
2013-12-26 09:05:00,38.2,31.0,30.30,SSE,155,17.0,21.0,75,0.00,,---,0.00,VWS V14.01,2013-12-26 14:05:00,
2013-12-26 09:10:00,38.4,31.2,30.30,South,185,14.0,21.0,75,0.00,,---,0.00,VWS V14.01,2013-12-26 14:10:00,
2013-12-26 09:15:00,38.5,30.6,30.31,South,186,11.0,21.0,73,0.00,,---,0.00,VWS V14.01,2013-12-26 14:15:00,
2013-12-26 09:20:00,38.6,30.4,30.31,SSW,192,16.0,21.0,72,0.00,,---,0.00,VWS V14.01,2013-12-26 14:20:00,
2013-12-26 09:25:00,38.7,31.5,30.31,SSW,192,10.0,21.0,75,0.00,,---,0.00,VWS V14.01,2013-12-26 14:25:00,
2013-12-26 09:30:00,38.7,31.5,30.30,South,169,16.0,21.0,75,0.00,,---,0.00,VWS V14.01,2013-12-26 14:30:00,
2013-12-26 09:35:00,38.8,31.6,30.30,South,179,13.0,19.0,75,0.00,,---,0.00,VWS V14.01,2013-12-26 14:35:00,
2013-12-26 09:40:00,38.8,31.9,30.30,South,182,13.0,21.0,76,0.00,,---,0.00,VWS V14.01,2013-12-26 14:40:00,
2013-12-26 09:45:00,38.8,31.9,30.29,South,178,16.0,21.0,76,0.00,,---,0.00,VWS V14.01,2013-12-26 14:45:00,
2013-12-26 09:50:00,38.8,32.2,30.29,SSE,168,12.0,20.0,77,0.00,,---,0.00,VWS V14.01,2013-12-26 14:50:00,
2013-12-26 09:55:00,38.9,32.6,30.29,SSE,159,18.0,20.0,78,0.00,,---,0.00,VWS V14.01,2013-12-26 14:55:00,
2013-12-26 10:00:00,39.0,33.0,30.29,SSE,147,14.0,20.0,79,0.00,,---,0.00,VWS V14.01,2013-12-26 15:00:00,
2013-12-26 10:05:00,39.1,32.8,30.29,South,186,12.0,23.0,78,0.00,,---,0.00,VWS V14.01,2013-12-26 15:05:00,
2013-12-26 10:10:00,39.3,33.0,30.29,South,190,19.0,24.0,78,0.00,,---,0.00,VWS V14.01,2013-12-26 15:10:00,
2013-12-26 10:15:00,39.7,33.4,30.27,South,174,19.0,24.0,78,0.00,,---,0.00,VWS V14.01,2013-12-26 15:15:00,
2013-12-26 10:20:00,39.9,33.9,30.27,South,182,14.0,23.0,79,0.00,,---,0.00,VWS V14.01,2013-12-26 15:20:00,
2013-12-26 10:25:00,39.8,33.8,30.27,South,172,15.0,23.0,79,0.00,,---,0.00,VWS V14.01,2013-12-26 15:25:00,
2013-12-26 10:30:00,39.7,34.0,30.26,South,178,11.0,23.0,80,0.00,,---,0.00,VWS V14.01,2013-12-26 15:30:00,
2013-12-26 10:35:00,39.8,34.1,30.26,SSE,157,13.0,23.0,80,0.00,,---,0.00,VWS V14.01,2013-12-26 15:35:00,
2013-12-26 10:40:00,39.9,34.2,30.26,SSE,167,15.0,23.0,80,0.00,,---,0.00,VWS V14.01,2013-12-26 15:40:00,
2013-12-26 10:45:00,39.8,33.8,30.23,SSE,160,11.0,23.0,79,0.00,,---,0.00,VWS V14.01,2013-12-26 15:45:00,
2013-12-26 10:50:00,39.9,34.2,30.23,South,173,15.0,23.0,80,0.00,,---,0.00,VWS V14.01,2013-12-26 15:50:00,
2013-12-26 10:55:00,39.9,34.5,30.23,SSE,157,11.0,23.0,81,0.00,,---,0.00,VWS V14.01,2013-12-26 15:55:00,
2013-12-26 11:00:00,40.0,34.7,30.23,SE,144,11.0,23.0,81,0.00,,---,0.00,VWS V14.01,2013-12-26 16:00:00,
2013-12-26 11:05:00,40.2,34.5,30.23,SSE,157,11.0,18.0,80,0.00,,---,0.00,VWS V14.01,2013-12-26 16:05:00,
2013-12-26 11:10:00,40.5,35.1,30.23,SSE,167,15.0,20.0,81,0.00,,---,0.00,VWS V14.01,2013-12-26 16:10:00,
2013-12-26 11:15:00,40.3,34.6,30.21,SSW,196,9.0,20.0,80,0.00,,---,0.00,VWS V14.01,2013-12-26 16:15:00,
2013-12-26 11:20:00,40.3,34.9,30.21,South,186,10.0,24.0,81,0.00,,---,0.00,VWS V14.01,2013-12-26 16:20:00,
2013-12-26 11:25:00,40.2,35.2,30.21,South,184,16.0,24.0,82,0.00,,---,0.00,VWS V14.01,2013-12-26 16:25:00,
2013-12-26 11:30:00,40.2,35.2,30.20,South,169,14.0,24.0,82,0.00,,---,0.00,VWS V14.01,2013-12-26 16:30:00,
2013-12-26 11:35:00,40.2,35.2,30.20,South,179,17.0,20.0,82,0.00,,---,0.00,VWS V14.01,2013-12-26 16:35:00,
2013-12-26 11:40:00,40.3,35.6,30.20,South,173,13.0,20.0,83,0.00,,---,0.00,VWS V14.01,2013-12-26 16:40:00,
2013-12-26 11:45:00,40.3,35.9,30.17,SSE,155,15.0,15.0,84,0.00,,---,0.00,VWS V14.01,2013-12-26 16:45:00,
2013-12-26 11:51:00,40.3,35.9,30.17,SSE,157,19.0,19.0,84,0.00,,---,0.00,VWS V14.01,2013-12-26 16:51:00,
2013-12-26 11:56:00,40.4,36.3,30.17,South,177,12.0,19.0,85,0.00,,---,0.00,VWS V14.01,2013-12-26 16:56:00,
2013-12-26 12:01:00,40.5,36.7,30.16,SE,144,15.0,15.0,86,0.00,,---,0.00,VWS V14.01,2013-12-26 17:01:00,
2013-12-26 12:06:00,40.5,36.9,30.16,South,184,19.0,22.0,87,0.00,,---,0.00,VWS V14.01,2013-12-26 17:06:00,
2013-12-26 12:11:00,40.5,36.9,30.16,South,184,13.0,22.0,87,0.00,,---,0.00,VWS V14.01,2013-12-26 17:11:00,
2013-12-26 12:16:00,40.5,37.2,30.15,SE,144,21.0,21.0,88,0.00,,---,0.00,VWS V14.01,2013-12-26 17:16:00,
2013-12-26 12:21:00,40.3,37.0,30.15,South,182,11.0,24.0,88,0.00,,---,0.00,VWS V14.01,2013-12-26 17:21:00,
2013-12-26 12:26:00,40.3,37.3,30.15,South,184,13.0,24.0,89,0.00,,---,0.00,VWS V14.01,2013-12-26 17:26:00,
2013-12-26 12:31:00,40.2,37.2,30.15,South,173,13.0,17.0,89,0.00,,---,0.00,VWS V14.01,2013-12-26 17:31:00,
2013-12-26 12:36:00,40.2,37.5,30.15,South,179,17.0,20.0,90,0.00,,---,0.00,VWS V14.01,2013-12-26 17:36:00,
2013-12-26 12:41:00,40.1,37.4,30.15,SSW,200,17.0,21.0,90,0.00,,---,0.00,VWS V14.01,2013-12-26 17:41:00,
2013-12-26 12:46:00,40.0,37.6,30.14,SSW,193,13.0,19.0,91,0.00,,---,0.00,VWS V14.01,2013-12-26 17:46:00,
2013-12-26 12:51:00,39.8,37.4,30.14,South,175,14.0,22.0,91,0.01,,---,0.01,VWS V14.01,2013-12-26 17:51:00,
2013-12-26 12:56:00,39.5,37.4,30.14,SE,144,19.0,22.0,92,0.01,,---,0.01,VWS V14.01,2013-12-26 17:56:00,
2013-12-26 13:01:00,39.2,37.3,30.13,South,175,13.0,17.0,93,0.01,,---,0.01,VWS V14.01,2013-12-26 18:01:00,
2013-12-26 13:06:00,39.1,37.2,30.13,SE,126,18.0,18.0,93,0.02,,---,0.02,VWS V14.01,2013-12-26 18:06:00,
2013-12-26 13:11:00,39.1,37.2,30.13,SE,146,11.0,18.0,93,0.02,,---,0.02,VWS V14.01,2013-12-26 18:11:00,
2013-12-26 13:16:00,38.9,37.0,30.11,SSE,156,8.0,12.0,93,0.03,,---,0.03,VWS V14.01,2013-12-26 18:16:00,
2013-12-26 13:21:00,38.8,37.0,30.11,SSE,163,10.0,15.0,93,0.04,,---,0.04,VWS V14.01,2013-12-26 18:21:00,
2013-12-26 13:26:00,38.8,37.2,30.11,SE,134,15.0,15.0,94,0.04,,---,0.04,VWS V14.01,2013-12-26 18:26:00,
2013-12-26 13:31:00,38.7,37.1,30.08,SE,142,11.0,12.0,94,0.05,,---,0.05,VWS V14.01,2013-12-26 18:31:00,
2013-12-26 13:36:00,38.8,37.2,30.08,SE,143,10.0,15.0,94,0.06,,---,0.06,VWS V14.01,2013-12-26 18:36:00,
2013-12-26 13:41:00,39.0,37.4,30.08,SE,146,13.0,19.0,94,0.06,,---,0.06,VWS V14.01,2013-12-26 18:41:00,
2013-12-26 13:46:00,39.1,37.5,30.07,SE,139,12.0,12.0,94,0.07,,---,0.07,VWS V14.01,2013-12-26 18:46:00,
2013-12-26 13:51:00,39.1,37.5,30.07,South,176,10.0,16.0,94,0.07,,---,0.07,VWS V14.01,2013-12-26 18:51:00,
2013-12-26 13:56:00,39.1,37.5,30.07,SE,143,9.0,16.0,94,0.07,,---,0.07,VWS V14.01,2013-12-26 18:56:00,
2013-12-26 14:01:00,39.1,37.5,30.04,SE,136,9.0,13.0,94,0.07,,---,0.08,VWS V14.01,2013-12-26 19:01:00,
2013-12-26 14:06:00,39.1,37.5,30.04,SE,136,9.0,13.0,94,0.08,,---,0.09,VWS V14.01,2013-12-26 19:06:00,
2013-12-26 14:12:00,39.1,37.5,30.04,SE,136,7.0,13.0,94,0.08,,---,0.09,VWS V14.01,2013-12-26 19:12:00,
2013-12-26 14:17:00,39.2,37.6,30.03,SE,131,6.0,8.0,94,0.06,,---,0.09,VWS V14.01,2013-12-26 19:17:00,
2013-12-26 14:22:00,39.2,37.9,30.03,SE,124,7.0,9.0,95,0.06,,---,0.09,VWS V14.01,2013-12-26 19:22:00,
2013-12-26 14:27:00,39.3,38.0,30.03,ESE,117,7.0,9.0,95,0.07,,---,0.10,VWS V14.01,2013-12-26 19:27:00,
2013-12-26 14:32:00,39.3,38.0,30.01,ESE,109,7.0,9.0,95,0.05,,---,0.10,VWS V14.01,2013-12-26 19:32:00,
2013-12-26 14:37:00,39.5,38.2,30.01,ESE,107,2.0,9.0,95,0.05,,---,0.10,VWS V14.01,2013-12-26 19:37:00,
2013-12-26 14:42:00,39.5,38.2,30.01,ESE,107,2.0,9.0,95,0.06,,---,0.11,VWS V14.01,2013-12-26 19:42:00,
2013-12-26 14:47:00,39.5,38.2,30.01,ESE,107,5.0,5.0,95,0.05,,---,0.11,VWS V14.01,2013-12-26 19:47:00,
2013-12-26 14:52:00,39.3,38.0,30.01,ESE,107,4.0,5.0,95,0.06,,---,0.12,VWS V14.01,2013-12-26 19:52:00,
2013-12-26 14:57:00,39.0,37.7,30.01,NW,313,4.0,7.0,95,0.07,,---,0.13,VWS V14.01,2013-12-26 19:57:00,
2013-12-26 15:02:00,38.2,36.9,30.03,WNW,296,5.0,10.0,95,0.07,,---,0.15,VWS V14.01,2013-12-26 20:02:00,
2013-12-26 15:07:00,37.5,36.2,30.03,NW,304,9.0,14.0,95,0.08,,---,0.16,VWS V14.01,2013-12-26 20:07:00,
2013-12-26 15:12:00,37.1,36.1,30.03,North,5,5.0,14.0,96,0.09,,---,0.17,VWS V14.01,2013-12-26 20:12:00,
2013-12-26 15:17:00,37.0,36.0,30.01,North,11,4.0,6.0,96,0.08,,---,0.17,VWS V14.01,2013-12-26 20:17:00,
2013-12-26 15:22:00,36.9,35.9,30.01,NE,46,4.0,8.0,96,0.08,,---,0.17,VWS V14.01,2013-12-26 20:22:00,
2013-12-26 15:27:00,37.0,36.0,30.01,NNE,23,1.0,8.0,96,0.08,,---,0.17,VWS V14.01,2013-12-26 20:27:00,
2013-12-26 15:32:00,37.0,36.0,30.01,NNE,16,4.0,6.0,96,0.07,,---,0.17,VWS V14.01,2013-12-26 20:32:00,
2013-12-26 15:37:00,37.0,36.0,30.01,NNE,29,6.0,6.0,96,0.07,,---,0.17,VWS V14.01,2013-12-26 20:37:00,
2013-12-26 15:42:00,36.9,35.9,30.01,NNE,19,5.0,7.0,96,0.07,,---,0.17,VWS V14.01,2013-12-26 20:42:00,
2013-12-26 15:47:00,36.9,35.9,30.00,NNE,26,4.0,5.0,96,0.06,,---,0.17,VWS V14.01,2013-12-26 20:47:00,
2013-12-26 15:52:00,37.0,36.0,30.00,NNE,21,4.0,7.0,96,0.07,,---,0.18,VWS V14.01,2013-12-26 20:52:00,
2013-12-26 15:57:00,37.0,36.0,30.00,NNE,26,5.0,7.0,96,0.07,,---,0.18,VWS V14.01,2013-12-26 20:57:00,
2013-12-26 16:02:00,37.0,36.0,30.01,NNE,26,4.0,4.0,96,0.04,,---,0.18,VWS V14.01,2013-12-26 21:02:00,
2013-12-26 16:07:00,37.0,36.0,30.01,NE,50,3.0,6.0,96,0.04,,---,0.18,VWS V14.01,2013-12-26 21:07:00,
2013-12-26 16:12:00,37.1,36.1,30.01,NE,54,3.0,6.0,96,0.04,,---,0.18,VWS V14.01,2013-12-26 21:12:00,
2013-12-26 16:17:00,37.2,36.2,30.00,ENE,61,4.0,4.0,96,0.01,,---,0.18,VWS V14.01,2013-12-26 21:17:00,
2013-12-26 16:22:00,37.3,36.5,30.00,ENE,74,2.0,5.0,97,0.01,,---,0.18,VWS V14.01,2013-12-26 21:22:00,
2013-12-26 16:27:00,37.4,36.4,30.00,East,84,3.0,5.0,96,0.01,,---,0.18,VWS V14.01,2013-12-26 21:27:00,
2013-12-26 16:32:00,37.5,36.5,30.00,East,86,3.0,4.0,96,0.01,,---,0.18,VWS V14.01,2013-12-26 21:32:00,
2013-12-26 16:37:00,37.6,36.6,30.00,East,80,3.0,5.0,96,0.01,,---,0.18,VWS V14.01,2013-12-26 21:37:00,
2013-12-26 16:42:00,37.7,36.7,30.00,East,80,3.0,5.0,96,0.01,,---,0.18,VWS V14.01,2013-12-26 21:42:00,
2013-12-26 16:47:00,37.7,36.9,30.00,East,82,3.0,4.0,97,0.01,,---,0.18,VWS V14.01,2013-12-26 21:47:00,
2013-12-26 16:53:00,37.8,37.0,30.00,East,84,3.0,4.0,97,0.01,,---,0.18,VWS V14.01,2013-12-26 21:53:00,
2013-12-26 16:58:00,37.8,37.0,30.00,East,84,1.0,4.0,97,0.01,,---,0.18,VWS V14.01,2013-12-26 21:58:00,
2013-12-26 17:03:00,37.8,37.0,30.01,East,84,0.0,0.0,97,0.00,,---,0.18,VWS V14.01,2013-12-26 22:03:00,
2013-12-26 17:08:00,37.8,37.0,30.01,East,84,1.0,3.0,97,0.00,,---,0.18,VWS V14.01,2013-12-26 22:08:00,
2013-12-26 17:13:00,37.8,37.0,30.01,West,271,1.0,7.0,97,0.00,,---,0.18,VWS V14.01,2013-12-26 22:13:00,
2013-12-26 17:18:00,37.7,36.9,30.03,West,269,3.0,3.0,97,0.00,,---,0.18,VWS V14.01,2013-12-26 22:18:00,
2013-12-26 17:23:00,37.7,36.9,30.03,West,277,6.0,6.0,97,0.00,,---,0.18,VWS V14.01,2013-12-26 22:23:00,
2013-12-26 17:28:00,37.5,36.7,30.03,West,277,5.0,10.0,97,0.01,,---,0.19,VWS V14.01,2013-12-26 22:28:00,
2013-12-26 17:33:00,37.9,37.1,30.03,WNW,290,9.0,14.0,97,0.01,,---,0.19,VWS V14.01,2013-12-26 22:33:00,
2013-12-26 17:35:00,38.0,37.2,30.03,West,269,8.0,14.0,97,0.01,,---,0.19,VWS V14.01,2013-12-26 22:35:00,
2013-12-26 17:40:00,37.9,37.1,30.03,WNW,289,12.0,15.0,97,0.01,,---,0.19,VWS V14.01,2013-12-26 22:40:00,
2013-12-26 17:45:00,37.8,36.8,30.04,WNW,300,8.0,15.0,96,0.01,,---,0.19,VWS V14.01,2013-12-26 22:45:00,
2013-12-26 17:50:00,37.6,36.6,30.04,WNW,288,8.0,15.0,96,0.01,,---,0.19,VWS V14.01,2013-12-26 22:50:00,
2013-12-26 17:55:00,37.4,36.4,30.04,NW,309,10.0,15.0,96,0.01,,---,0.19,VWS V14.01,2013-12-26 22:55:00,
2013-12-26 18:00:00,37.2,35.9,30.04,West,271,10.0,15.0,95,0.01,,---,0.19,VWS V14.01,2013-12-26 23:00:00,
2013-12-26 18:05:00,37.1,35.8,30.04,WNW,284,5.0,12.0,95,0.01,,---,0.19,VWS V14.01,2013-12-26 23:05:00,
2013-12-26 18:10:00,37.0,35.7,30.04,WNW,286,7.0,14.0,95,0.01,,---,0.19,VWS V14.01,2013-12-26 23:10:00,
2013-12-26 18:15:00,36.7,35.4,30.05,NW,304,14.0,14.0,95,0.01,,---,0.19,VWS V14.01,2013-12-26 23:15:00,
2013-12-26 18:20:00,36.4,34.8,30.05,West,265,13.0,15.0,94,0.01,,---,0.19,VWS V14.01,2013-12-26 23:20:00,
2013-12-26 18:25:00,36.0,34.2,30.05,WNW,292,8.0,15.0,93,0.01,,---,0.19,VWS V14.01,2013-12-26 23:25:00,
2013-12-26 18:30:00,35.7,33.9,30.06,WNW,283,5.0,5.0,93,0.00,,---,0.19,VWS V14.01,2013-12-26 23:30:00,
2013-12-26 18:36:00,35.6,33.8,30.06,West,265,9.0,16.0,93,0.00,,---,0.19,VWS V14.01,2013-12-26 23:36:00,
2013-12-26 18:41:00,35.4,33.6,30.06,WNW,282,7.0,16.0,93,0.00,,---,0.19,VWS V14.01,2013-12-26 23:41:00,
2013-12-26 18:42:00,35.3,33.5,30.06,West,263,9.0,16.0,93,0.00,,---,0.19,VWS V14.01,2013-12-26 23:42:00,
2013-12-26 18:47:00,35.2,33.4,30.07,WNW,298,9.0,9.0,93,0.00,,---,0.19,VWS V14.01,2013-12-26 23:47:00,
2013-12-26 18:49:00,35.2,33.4,30.07,West,269,9.0,14.0,93,0.00,,---,0.19,VWS V14.01,2013-12-26 23:49:00,
2013-12-26 18:54:00,35.1,33.5,30.07,West,275,11.0,14.0,94,0.00,,---,0.19,VWS V14.01,2013-12-26 23:54:00,
2013-12-26 18:59:00,35.0,33.5,30.07,WNW,292,9.0,16.0,94,0.00,,---,0.19,VWS V14.01,2013-12-26 23:59:00,
2013-12-26 19:04:00,34.8,33.0,30.09,West,277,14.0,20.0,93,0.00,,---,0.19,VWS V14.01,2013-12-27 00:04:00,
2013-12-26 19:09:00,34.8,33.0,30.09,West,277,14.0,20.0,93,0.00,,---,0.19,VWS V14.01,2013-12-27 00:09:00,
2013-12-26 19:14:00,34.5,32.7,30.09,West,272,16.0,20.0,93,0.00,,---,0.19,VWS V14.01,2013-12-27 00:14:00,
2013-12-26 19:19:00,34.3,32.5,30.09,West,273,8.0,20.0,93,0.00,,---,0.19,VWS V14.01,2013-12-27 00:19:00,
2013-12-26 19:24:00,34.2,32.4,30.09,WNW,296,14.0,20.0,93,0.00,,---,0.19,VWS V14.01,2013-12-27 00:24:00,
2013-12-26 19:29:00,34.1,32.3,30.09,WNW,295,5.0,20.0,93,0.00,,---,0.19,VWS V14.01,2013-12-27 00:29:00,
2013-12-26 19:34:00,33.9,32.4,30.10,West,274,6.0,13.0,94,0.00,,---,0.19,VWS V14.01,2013-12-27 00:34:00,
2013-12-26 19:39:00,33.8,32.3,30.10,WNW,295,11.0,17.0,94,0.00,,---,0.19,VWS V14.01,2013-12-27 00:39:00,
2013-12-26 19:44:00,33.6,31.8,30.10,West,275,7.0,17.0,93,0.00,,---,0.19,VWS V14.01,2013-12-27 00:44:00,
2013-12-26 19:49:00,33.5,31.7,30.10,West,275,9.0,14.0,93,0.00,,---,0.19,VWS V14.01,2013-12-27 00:49:00,
2013-12-26 19:54:00,33.4,31.6,30.10,West,271,11.0,14.0,93,0.00,,---,0.19,VWS V14.01,2013-12-27 00:54:00,
2013-12-26 19:59:00,33.4,31.3,30.11,West,275,7.0,14.0,92,0.00,,---,0.19,VWS V14.01,2013-12-27 00:59:00,
2013-12-26 20:05:00,33.2,31.1,30.11,WNW,284,8.0,16.0,92,0.00,,---,0.19,VWS V14.01,2013-12-27 01:05:00,
2013-12-26 20:10:00,33.0,30.9,30.11,West,259,7.0,17.0,92,0.00,,---,0.19,VWS V14.01,2013-12-27 01:10:00,
2013-12-26 20:15:00,32.8,30.7,30.11,WNW,290,9.0,17.0,92,0.00,,---,0.19,VWS V14.01,2013-12-27 01:15:00,
2013-12-26 20:20:00,32.6,30.5,30.11,WNW,288,9.0,19.0,92,0.00,,---,0.19,VWS V14.01,2013-12-27 01:20:00,
2013-12-26 20:25:00,32.5,30.4,30.11,West,275,10.0,19.0,92,0.00,,---,0.19,VWS V14.01,2013-12-27 01:25:00,
2013-12-26 20:30:00,32.3,30.0,30.11,WNW,303,11.0,19.0,91,0.00,,---,0.19,VWS V14.01,2013-12-27 01:30:00,
2013-12-26 20:35:00,32.3,30.0,30.11,WNW,290,9.0,15.0,91,0.00,,---,0.19,VWS V14.01,2013-12-27 01:35:00,
2013-12-26 20:40:00,32.4,29.8,30.11,WNW,292,14.0,20.0,90,0.00,,---,0.19,VWS V14.01,2013-12-27 01:40:00,
2013-12-26 20:45:00,32.2,29.6,30.12,NW,315,12.0,20.0,90,0.00,,---,0.19,VWS V14.01,2013-12-27 01:45:00,
2013-12-26 20:50:00,32.1,29.5,30.12,NW,315,10.0,18.0,90,0.00,,---,0.19,VWS V14.01,2013-12-27 01:50:00,
2013-12-26 20:55:00,32.1,29.2,30.12,WNW,292,15.0,18.0,89,0.00,,---,0.19,VWS V14.01,2013-12-27 01:55:00,
2013-12-26 21:00:00,32.0,29.1,30.12,WNW,303,10.0,18.0,89,0.00,,---,0.19,VWS V14.01,2013-12-27 02:00:00,
2013-12-26 21:05:00,32.1,29.2,30.12,WNW,300,10.0,19.0,89,0.00,,---,0.19,VWS V14.01,2013-12-27 02:05:00,
2013-12-26 21:10:00,32.1,29.2,30.12,NW,306,12.0,19.0,89,0.00,,---,0.19,VWS V14.01,2013-12-27 02:10:00,
2013-12-26 21:15:00,32.1,29.0,30.12,WNW,299,9.0,19.0,88,0.00,,---,0.19,VWS V14.01,2013-12-27 02:15:00,
2013-12-26 21:20:00,32.0,28.9,30.12,NW,315,5.0,15.0,88,0.00,,---,0.19,VWS V14.01,2013-12-27 02:20:00,
2013-12-26 21:25:00,31.9,28.8,30.12,WNW,288,14.0,17.0,88,0.00,,---,0.19,VWS V14.01,2013-12-27 02:25:00,
2013-12-26 21:30:00,31.9,28.8,30.12,WNW,289,10.0,17.0,88,0.00,,---,0.19,VWS V14.01,2013-12-27 02:30:00,
2013-12-26 21:35:00,31.9,28.8,30.12,WNW,298,7.0,17.0,88,0.00,,---,0.19,VWS V14.01,2013-12-27 02:35:00,
2013-12-26 21:40:00,31.9,28.8,30.12,WNW,289,11.0,17.0,88,0.00,,---,0.19,VWS V14.01,2013-12-27 02:40:00,
2013-12-26 21:45:00,31.9,28.5,30.12,NW,319,10.0,17.0,87,0.00,,---,0.19,VWS V14.01,2013-12-27 02:45:00,
2013-12-26 21:50:00,32.0,28.3,30.12,NW,317,9.0,17.0,86,0.00,,---,0.19,VWS V14.01,2013-12-27 02:50:00,
2013-12-26 21:55:00,32.0,28.3,30.12,WNW,296,9.0,17.0,86,0.00,,---,0.19,VWS V14.01,2013-12-27 02:55:00,
2013-12-26 22:00:00,32.0,28.3,30.14,NW,304,4.0,5.0,86,0.00,,---,0.19,VWS V14.01,2013-12-27 03:00:00,
2013-12-26 22:05:00,31.9,27.9,30.14,WNW,300,7.0,17.0,85,0.00,,---,0.19,VWS V14.01,2013-12-27 03:05:00,
2013-12-26 22:10:00,32.0,28.0,30.14,WNW,302,10.0,17.0,85,0.00,,---,0.19,VWS V14.01,2013-12-27 03:10:00,
2013-12-26 22:16:00,32.0,28.0,30.14,WNW,298,7.0,7.0,85,0.00,,---,0.19,VWS V14.01,2013-12-27 03:16:00,
2013-12-26 22:21:00,31.8,27.8,30.14,North,355,7.0,11.0,85,0.00,,---,0.19,VWS V14.01,2013-12-27 03:21:00,
2013-12-26 22:26:00,31.7,28.0,30.14,NW,310,9.0,11.0,86,0.00,,---,0.19,VWS V14.01,2013-12-27 03:26:00,
2013-12-26 22:31:00,31.8,27.8,30.14,WNW,302,8.0,12.0,85,0.00,,---,0.19,VWS V14.01,2013-12-27 03:31:00,
2013-12-26 22:36:00,31.8,27.8,30.14,NW,314,9.0,13.0,85,0.00,,---,0.19,VWS V14.01,2013-12-27 03:36:00,
2013-12-26 22:41:00,31.7,27.7,30.14,NW,316,4.0,13.0,85,0.00,,---,0.19,VWS V14.01,2013-12-27 03:41:00,
2013-12-26 22:46:00,31.7,27.7,30.15,North,355,6.0,13.0,85,0.00,,---,0.19,VWS V14.01,2013-12-27 03:46:00,
2013-12-26 22:51:00,31.8,27.8,30.15,WNW,294,7.0,13.0,85,0.00,,---,0.19,VWS V14.01,2013-12-27 03:51:00,
2013-12-26 22:56:00,31.6,27.6,30.15,WNW,303,5.0,13.0,85,0.00,,---,0.19,VWS V14.01,2013-12-27 03:56:00,
2013-12-26 23:01:00,31.7,27.7,30.15,North,360,9.0,12.0,85,0.00,,---,0.19,VWS V14.01,2013-12-27 04:01:00,
2013-12-26 23:06:00,31.7,27.7,30.15,WNW,290,7.0,12.0,85,0.00,,---,0.19,VWS V14.01,2013-12-27 04:06:00,
2013-12-26 23:11:00,31.6,27.6,30.15,WNW,298,6.0,12.0,85,0.00,,---,0.19,VWS V14.01,2013-12-27 04:11:00,
2013-12-26 23:16:00,31.6,27.6,30.15,NW,310,6.0,9.0,85,0.00,,---,0.19,VWS V14.01,2013-12-27 04:16:00,
2013-12-26 23:21:00,31.5,27.5,30.15,WNW,303,5.0,9.0,85,0.00,,---,0.19,VWS V14.01,2013-12-27 04:21:00,
2013-12-26 23:26:00,31.5,27.5,30.15,West,279,10.0,13.0,85,0.00,,---,0.19,VWS V14.01,2013-12-27 04:26:00,
2013-12-26 23:31:00,31.5,27.5,30.15,WNW,293,6.0,9.0,85,0.00,,---,0.19,VWS V14.01,2013-12-27 04:31:00,
2013-12-26 23:36:00,31.4,27.4,30.15,WNW,302,5.0,10.0,85,0.00,,---,0.19,VWS V14.01,2013-12-27 04:36:00,
2013-12-26 23:41:00,31.3,27.3,30.15,WNW,296,4.0,10.0,85,0.00,,---,0.19,VWS V14.01,2013-12-27 04:41:00,
2013-12-26 23:46:00,31.1,27.4,30.14,WNW,300,4.0,7.0,86,0.00,,---,0.19,VWS V14.01,2013-12-27 04:46:00,
2013-12-26 23:51:00,31.0,27.3,30.14,West,279,3.0,8.0,86,0.00,,---,0.19,VWS V14.01,2013-12-27 04:51:00,
2013-12-26 23:56:00,30.8,27.4,30.14,West,277,8.0,9.0,87,0.00,,---,0.19,VWS V14.01,2013-12-27 04:56:00,